This is the latest recevied weather packets stored in our database for station/object KK7KHO. If no packets are shown the sender has not sent any weather packets the latest 1 day(s).
| Time | Temp. | Humidity | Pressure | Rain* | Wind** | Luminosity | Snow |
|---|---|---|---|---|---|---|---|
| 1778218323 | 11.11° C | 93% | 1016.2 hPa | 0 mm | - | 0 W/m² | - |
| 1778218020 | 11.11° C | 93% | 1016.2 hPa | 0 mm | - | 0 W/m² | - |
| 1778217413 | 11.11° C | 92% | 1015.9 hPa | 0 mm | - | 0 W/m² | - |
| 1778216805 | 11.67° C | 92% | 1016.2 hPa | 0 mm | - | 0 W/m² | - |
| 1778216198 | 11.67° C | 92% | 1016.1 hPa | 0 mm | - | 0 W/m² | - |
| 1778215593 | 12.22° C | 92% | 1016.3 hPa | 0 mm | - | 0 W/m² | - |
| 1778215289 | 12.22° C | 91% | 1016.2 hPa | 0 mm | - | 0 W/m² | - |
| 1778214986 | 12.22° C | 90% | 1016.2 hPa | 0 mm | - | 0 W/m² | - |
| 1778214684 | 12.22° C | 90% | 1016.3 hPa | 0 mm | - | 0 W/m² | - |
| 1778214380 | 12.78° C | 89% | 1016.5 hPa | 0 mm | - | 0 W/m² | - |
| 1778213470 | 13.33° C | 85% | 1016.4 hPa | 0 mm | - | 0 W/m² | - |
| 1778213167 | 13.33° C | 85% | 1016.4 hPa | 0 mm | - | 0 W/m² | - |
| 1778212865 | 13.33° C | 86% | 1016.3 hPa | 0 mm | - | 0 W/m² | - |
| 1778212259 | 13.33° C | 85% | 1016.2 hPa | 0 mm | - | 0 W/m² | - |
| 1778211955 | 13.89° C | 84% | 1016.2 hPa | 0 mm | - | 1 W/m² | - |
| 1778211653 | 13.89° C | 84% | 1016.1 hPa | 0 mm | - | 1 W/m² | - |
| 1778211350 | 13.89° C | 83% | 1015.9 hPa | 0 mm | - | 2 W/m² | - |
| 1778210744 | 14.44° C | 81% | 1016.1 hPa | 0 mm | - | 5 W/m² | - |
| 1778210139 | 15° C | 79% | 1016 hPa | 0 mm | - | 10 W/m² | - |
| 1778209835 | 15° C | 78% | 1016.3 hPa | 0 mm | - | 14 W/m² | - |
| 1778209230 | 15.56° C | 75% | 1016.2 hPa | 0 mm | - | 23 W/m² | - |
| 1778208925 | 15.56° C | 75% | 1016.4 hPa | 0 mm | - | 29 W/m² | - |
| 1778208623 | 15.56° C | 74% | 1016.1 hPa | 0 mm | - | 33 W/m² | - |
| 1778207712 | 16.11° C | 73% | 1016.6 hPa | 0 mm | - | 38 W/m² | - |
| 1778207410 | 16.67° C | 74% | 1016.3 hPa | 0 mm | - | 36 W/m² | - |
* Rain latest hour (hover to see other rain measurements)
** Current wind speed in m/s (hover to see current wind gust speed)